Location: Unspecified
(41.1850°N, 73.2650°W)
Time: 14:29:33
(UTC+00:00)

Daily predictions for brighter satellites

Satellite Brightness Start Highest point End
(mag) Time Altitude Azimuth Time Altitude Azimuth Time Altitude Azimuth
Cosmos 2082 3.7 23:26:34 10° NNW 23:32:13 87° ENE 23:37:50 10° SSE
Envisat 3.1 23:27:47 10° SSE 23:32:51 90° E 23:37:58 10° NNW
Cosmos 1727 Rocket 4.0 23:29:44 10° S 23:36:00 76° E 23:42:21 10° N
SJ-6B 4.2 23:35:46 10° ESE 23:38:32 20° ENE 23:41:17 10° NNE
Cosmos 1992 Rocket 4.2 23:33:20 10° NNW 23:38:34 78° WSW 23:43:46 10° SSE
Intercosmos 25 Rocket 3.9 23:36:36 10° SSW 23:40:13 78° W 23:45:44 10° N
Cosmos 1818 3.6 23:39:23 10° SSW 23:44:51 89° WNW 23:50:22 10° NNE
USA 238 DEB 4.1 23:39:50 10° S 23:45:57 38° ESE 23:52:13 10° NE
FREGAT/IRIS 3.0 23:43:19 10° SE 23:45:59 37° ENE 23:48:41 10° N
USA 238 4.1 23:39:58 10° S 23:46:04 38° ESE 23:52:18 10° NE
Cosmos 1346 Rocket 3.8 23:49:39 10° SSW 23:53:39 53° WNW 23:57:40 10° N
DELTA 2 R/B (1) 4.2 23:49:12 10° SW 23:54:20 39° SSE 23:59:02 12° E
Iridium 4 Rocket 4.0 23:50:34 10° SE 23:54:45 33° E 23:59:18 10° NNE
ISS -2.5 23:52:24 10° W 23:55:33 39° NNW 23:58:42 10° NE
